User: anonymous   Login
Location: Lake Runnemede Observatory
(43.4843°N, 72.3851°W)
Time: 21:30:18
(UTC-04:00)
Language:

SPOT 5 - Orbit

View from above orbital plane
View from above orbital plane
View from above satellite
View from above satellite

Ground track
Ground track

The orbit data is extracted from the following two-line orbital elements,

1 27421U 02021A   16274.46076757  .00000044  00000-0  21402-4 0  9994
2 27421  98.4454 330.9582 0136335  43.5773 317.6097 14.51819363747981
Epoch (UTC): 30 September 2016 11:03:30
Eccentricity: 0.0136335
inclination: 98.4454°
perigee height: 623 km
apogee height: 816 km
right ascension of ascending node: 330.9582°
argument of perigee: 43.5773°
revolutions per day: 14.51819363
mean anomaly at epoch: 317.6097°
orbit number at epoch: 74798

The dashed part of the orbit path shows where the satellite is in the earth's shadow,  

DLR